Location: Holkham
(52.9500°N, 0.8167°E)
Time: 05:39:28
(UTC+00:00)

SeaSat 1 - Pass Details

Date: 19 May 2025
Orbit: 738 x 740 km, 108.0° (Epoch: 13 June)

Event Time Altitude Azimuth Distance (km) Brightness Sun altitude
Exits shadow 21:36:39 16° 146° (SE) 1,893 3.9 -11.3°
Maximum altitude 21:40:40 89° 57° (ENE) 748 2.4 -11.6°
Drops below altitude 10° 21:45:36 10° 328° (NNW) 2,262 6.5 -12.0°
Sets 21:47:52 0° 329° (NNW) 3,189 7.9 -12.2°
